Location: Indian Hills
(32.9760°N, 85.9450°W)
Time: 20:43:53
(UTC+00:00)

Cosmos 1340 - Pass Details

Date: 09 December 2019
Orbit: 501 x 506 km, 81.2° (Epoch: 29 January)

Event Time Altitude Azimuth Distance (km) Brightness Sun altitude
Rises 11:15:43 0° 184° (S) 2,580 6.4 -16.2°
Reaches altitude 10° 11:17:49 10° 182° (S) 1,701 5.5 -15.8°
Maximum altitude 11:21:33 77° 96° (E) 519 2.7 -15.1°
Drops below altitude 10° 11:25:18 10° 11° (N) 1,715 5.3 -14.3°
Sets 11:27:26 0° 10° (N) 2,604 6.2 -13.9°
